SIA285 WSSS-NZAA

Flight info

Callsign SIA285
Flight time N/A
Altitude 33000
Route N0506F330 ANITO B470 PKP L895 SAPDA A585 PD/N0493F350 T21 LEC J141 PKS A576 TESAT L521 GEROS/N0485F370 L521 LUNBI
Aircraft B77W/H-SDE1E2E3FGHIJ4J5M1P2RWXYZ/LB1D1

Departure

Time 2026-05-01 11:07
Airport Singapore Changi Airport (WSSS)

Arrival

Time N/A
Airport Auckland International Airport (NZAA)
Time Latitude Longitude Altitude Speed Heading
2026-05-01 09:59 1.35157 103.98343 30 ft 0 kts 113°
2026-05-01 10:56 1.35163 103.98329 28 ft 4 kts 113°
2026-05-01 10:56 1.35173 103.98306 27 ft 2 kts 112°
2026-05-01 10:56 1.35184 103.98286 27 ft 4 kts 141°
2026-05-01 10:56 1.35207 103.98276 30 ft 4 kts 182°
2026-05-01 10:57 1.35229 103.98280 29 ft 1 kts 202°
2026-05-01 10:57 1.35230 103.98280 29 ft 0 kts 202°
2026-05-01 10:59 1.35224 103.98278 30 ft 3 kts 202°
2026-05-01 10:59 1.35169 103.98256 30 ft 12 kts 201°
2026-05-01 11:00 1.35114 103.98191 30 ft 12 kts 241°
2026-05-01 11:00 1.35067 103.98118 30 ft 13 kts 220°
2026-05-01 11:00 1.34988 103.98081 30 ft 13 kts 203°
2026-05-01 11:00 1.34907 103.98048 30 ft 13 kts 202°
2026-05-01 11:01 1.34825 103.98018 30 ft 13 kts 183°
2026-05-01 11:01 1.34767 103.98080 30 ft 14 kts 112°
2026-05-01 11:01 1.34722 103.98190 30 ft 21 kts 113°
2026-05-01 11:01 1.34666 103.98323 46 ft 21 kts 113°
2026-05-01 11:02 1.34609 103.98459 47 ft 22 kts 112°
2026-05-01 11:02 1.34554 103.98588 30 ft 21 kts 113°
2026-05-01 11:02 1.34496 103.98720 30 ft 21 kts 114°
2026-05-01 11:02 1.34439 103.98853 30 ft 21 kts 112°
2026-05-01 11:03 1.34378 103.98929 31 ft 12 kts 180°
2026-05-01 11:03 1.34268 103.98888 31 ft 25 kts 203°
2026-05-01 11:03 1.34086 103.98811 31 ft 29 kts 202°
2026-05-01 11:03 1.33901 103.98734 31 ft 29 kts 203°
2026-05-01 11:04 1.33717 103.98657 30 ft 29 kts 202°
2026-05-01 11:04 1.33533 103.98580 30 ft 29 kts 203°
2026-05-01 11:04 1.33349 103.98503 30 ft 29 kts 203°
2026-05-01 11:04 1.33165 103.98426 31 ft 28 kts 202°
2026-05-01 11:05 1.33011 103.98361 31 ft 12 kts 202°
2026-05-01 11:05 1.32944 103.98393 32 ft 12 kts 117°
2026-05-01 11:05 1.32913 103.98470 33 ft 12 kts 105°
2026-05-01 11:05 1.32939 103.98530 33 ft 16 kts 24°
2026-05-01 11:06 1.33175 103.98628 33 ft 69 kts 22°
2026-05-01 11:06 1.33838 103.98907 32 ft 136 kts 23°
2026-05-01 11:06 1.34895 103.99349 36 ft 190 kts 22°
2026-05-01 11:07 1.37433 104.00428 1035 ft 200 kts 24°
2026-05-01 11:07 1.38764 104.00993 1332 ft 219 kts 24°
2026-05-01 11:07 1.40215 104.01608 1598 ft 233 kts 24°
2026-05-01 11:07 1.41705 104.02294 1994 ft 238 kts 35°
2026-05-01 11:08 1.42810 104.03515 2410 ft 240 kts 67°
2026-05-01 11:08 1.43110 104.05135 2977 ft 241 kts 97°
2026-05-01 11:08 1.41752 104.08200 3948 ft 246 kts 120°
2026-05-01 11:09 1.40851 104.09676 4352 ft 257 kts 126°
2026-05-01 11:09 1.39725 104.11111 4781 ft 266 kts 129°
2026-05-01 11:09 1.38527 104.12540 5343 ft 271 kts 129°
2026-05-01 11:10 1.36085 104.15455 6565 ft 275 kts 129°
2026-05-01 11:10 1.34862 104.16931 7151 ft 277 kts 129°
2026-05-01 11:10 1.33635 104.18423 7738 ft 279 kts 128°
2026-05-01 11:10 1.32404 104.19927 8312 ft 281 kts 128°
2026-05-01 11:11 1.31167 104.21447 8862 ft 284 kts 128°
2026-05-01 11:11 1.29915 104.22986 8992 ft 288 kts 128°
2026-05-01 11:11 1.28657 104.24538 9340 ft 287 kts 128°
2026-05-01 11:11 1.27416 104.26068 9939 ft 287 kts 128°
2026-05-01 11:12 1.26150 104.27631 10376 ft 295 kts 128°
2026-05-01 11:12 1.24798 104.29303 10490 ft 315 kts 128°
2026-05-01 11:12 1.23376 104.31060 10654 ft 335 kts 128°
2026-05-01 11:12 1.21871 104.32921 10798 ft 354 kts 128°
2026-05-01 11:13 1.20285 104.34880 11066 ft 369 kts 128°
2026-05-01 11:13 1.18675 104.36869 11520 ft 378 kts 128°
2026-05-01 11:13 1.17011 104.38925 12143 ft 382 kts 128°
2026-05-01 11:13 1.15333 104.40997 12891 ft 384 kts 128°
2026-05-01 11:14 1.13644 104.43082 13591 ft 386 kts 128°
2026-05-01 11:14 1.11750 104.45010 14042 ft 395 kts 140°
2026-05-01 11:14 1.09405 104.46480 14586 ft 401 kts 152°
2026-05-01 11:14 1.06788 104.47462 15171 ft 404 kts 162°
2026-05-01 11:15 1.04075 104.48196 15670 ft 409 kts 163°
2026-05-01 11:15 1.01302 104.48931 16196 ft 414 kts 163°
2026-05-01 11:15 0.98508 104.49676 16779 ft 417 kts 163°
2026-05-01 11:15 0.95698 104.50435 17346 ft 420 kts 162°
2026-05-01 11:16 0.92865 104.51209 17890 ft 424 kts 162°
2026-05-01 11:16 0.90005 104.51999 18382 ft 428 kts 162°
2026-05-01 11:16 0.87128 104.52797 18848 ft 431 kts 162°
2026-05-01 11:16 0.84229 104.53602 19333 ft 433 kts 162°
2026-05-01 11:17 0.81318 104.54412 19814 ft 436 kts 162°
2026-05-01 11:17 0.78384 104.55228 20280 ft 439 kts 162°
2026-05-01 11:17 0.75432 104.56049 20737 ft 442 kts 162°
2026-05-01 11:17 0.72459 104.56875 21179 ft 445 kts 162°
2026-05-01 11:18 0.69467 104.57706 21651 ft 448 kts 162°
2026-05-01 11:18 0.66455 104.58543 22081 ft 451 kts 162°
2026-05-01 11:18 0.63435 104.59406 22496 ft 453 kts 161°
2026-05-01 11:18 0.60402 104.60311 22916 ft 456 kts 161°
2026-05-01 11:19 0.57361 104.61228 23326 ft 459 kts 161°
2026-05-01 11:19 0.54291 104.62151 23679 ft 461 kts 161°
2026-05-01 11:19 0.51206 104.63072 24019 ft 464 kts 161°
2026-05-01 11:19 0.48101 104.63996 24337 ft 467 kts 161°
2026-05-01 11:20 0.44978 104.64922 24652 ft 469 kts 161°
2026-05-01 11:20 0.41838 104.65852 24976 ft 472 kts 161°
2026-05-01 11:20 0.38684 104.66785 25289 ft 475 kts 161°
2026-05-01 11:20 0.35505 104.67726 25600 ft 477 kts 161°
2026-05-01 11:21 0.32315 104.68670 25910 ft 480 kts 161°
2026-05-01 11:21 0.29107 104.69620 26205 ft 482 kts 161°
2026-05-01 11:21 0.25922 104.70563 26500 ft 485 kts 161°
2026-05-01 11:21 0.22680 104.71523 26794 ft 487 kts 162°
2026-05-01 11:22 0.19422 104.72488 27079 ft 490 kts 162°
2026-05-01 11:22 0.16143 104.73459 27357 ft 492 kts 162°
2026-05-01 11:22 0.12856 104.74433 27648 ft 495 kts 162°
2026-05-01 11:22 0.09547 104.75418 27919 ft 497 kts 162°
2026-05-01 11:23 0.06225 104.76408 28175 ft 499 kts 162°
2026-05-01 11:23 0.02889 104.77403 28432 ft 501 kts 162°
2026-05-01 11:23 -0.00457 104.78402 28681 ft 503 kts 162°
2026-05-01 11:23 -0.03808 104.79402 29051 ft 502 kts 162°
2026-05-01 11:24 -0.07133 104.80393 29353 ft 503 kts 162°
2026-05-01 11:24 -0.10493 104.81393 29543 ft 505 kts 162°
2026-05-01 11:24 -0.17159 104.83380 30026 ft 507 kts 162°
2026-05-01 11:25 -0.20536 104.84386 30312 ft 506 kts 162°
2026-05-01 11:25 -0.27184 104.86624 30830 ft 503 kts 154°
2026-05-01 11:25 -0.30331 104.88150 31079 ft 502 kts 150°
2026-05-01 11:26 -0.33310 104.89954 31328 ft 501 kts 144°
2026-05-01 11:26 -0.39040 104.93885 31823 ft 501 kts 144°
2026-05-01 11:26 -0.41922 104.95868 32035 ft 501 kts 144°
2026-05-01 11:27 -0.44798 104.97837 32287 ft 501 kts 144°
2026-05-01 11:27 -0.47673 104.99795 32562 ft 500 kts 145°
2026-05-01 11:27 -0.50553 105.01749 32781 ft 501 kts 145°
2026-05-01 11:28 -0.55364 105.05003 32844 ft 502 kts 145°
2026-05-01 11:28 -0.62064 105.09531 32865 ft 499 kts 145°
2026-05-01 11:29 -0.69735 105.14718 32861 ft 498 kts 145°
2026-05-01 11:30 -0.78335 105.20536 32864 ft 497 kts 144°
2026-05-01 11:30 -0.84061 105.24409 32863 ft 497 kts 144°
2026-05-01 11:31 -0.89791 105.28285 32866 ft 497 kts 144°
2026-05-01 11:31 -0.95595 105.32063 32863 ft 498 kts 148°
2026-05-01 11:32 -1.01683 105.35314 32866 ft 499 kts 151°
2026-05-01 11:32 -1.07861 105.38504 32862 ft 500 kts 150°
2026-05-01 11:33 -1.13989 105.41770 32866 ft 499 kts 150°
2026-05-01 11:33 -1.20089 105.45089 32861 ft 499 kts 150°
2026-05-01 11:34 -1.26106 105.48376 32860 ft 498 kts 150°
2026-05-01 11:34 -1.32174 105.51685 32860 ft 498 kts 150°
2026-05-01 11:35 -1.38229 105.54983 32863 ft 498 kts 150°
2026-05-01 11:35 -1.44309 105.58294 32864 ft 497 kts 150°
2026-05-01 11:36 -1.50384 105.61603 32862 ft 497 kts 150°
2026-05-01 11:36 -1.56459 105.64912 32864 ft 497 kts 150°
2026-05-01 11:37 -1.62496 105.68202 32866 ft 498 kts 150°
2026-05-01 11:37 -1.68586 105.71520 32865 ft 499 kts 150°
2026-05-01 11:38 -1.74683 105.74841 32867 ft 500 kts 150°
2026-05-01 11:38 -1.80790 105.78167 32867 ft 500 kts 150°
2026-05-01 11:39 -1.86901 105.81497 32865 ft 501 kts 150°
2026-05-01 11:39 -1.93024 105.84835 32866 ft 501 kts 150°
2026-05-01 11:40 -1.99149 105.88174 32866 ft 502 kts 150°
2026-05-01 11:40 -2.05283 105.91516 32869 ft 502 kts 150°
2026-05-01 11:41 -2.11418 105.94860 32872 ft 502 kts 150°
2026-05-01 11:41 -2.17549 105.98204 32871 ft 502 kts 150°
2026-05-01 11:42 -2.23681 106.01548 32860 ft 502 kts 150°
2026-05-01 11:42 -2.29815 106.04884 32868 ft 502 kts 150°
2026-05-01 11:43 -2.35953 106.08223 32868 ft 502 kts 150°
2026-05-01 11:43 -2.42096 106.11563 32867 ft 502 kts 150°
2026-05-01 11:44 -2.51307 106.16572 32864 ft 503 kts 150°
2026-05-01 11:44 -2.57452 106.19915 32861 ft 503 kts 150°
2026-05-01 11:45 -2.63595 106.23258 32866 ft 502 kts 150°
2026-05-01 11:45 -2.69735 106.26600 32860 ft 502 kts 150°
2026-05-01 11:46 -2.75827 106.29916 32860 ft 502 kts 150°
2026-05-01 11:46 -2.81956 106.33252 32855 ft 501 kts 150°
2026-05-01 11:47 -2.88086 106.36590 32847 ft 501 kts 150°
2026-05-01 11:47 -2.94213 106.39926 32852 ft 502 kts 150°
2026-05-01 11:48 -3.00342 106.43264 32854 ft 502 kts 150°
2026-05-01 11:48 -3.06477 106.46606 32855 ft 502 kts 150°
2026-05-01 11:49 -3.12615 106.49949 32854 ft 502 kts 150°
2026-05-01 11:49 -3.18750 106.53291 32857 ft 502 kts 150°
2026-05-01 11:50 -3.24885 106.56635 32861 ft 502 kts 150°
2026-05-01 11:50 -3.31026 106.59981 32860 ft 502 kts 150°
2026-05-01 11:51 -3.37162 106.63326 32863 ft 502 kts 150°
2026-05-01 11:51 -3.43300 106.66672 32863 ft 502 kts 150°
2026-05-01 11:52 -3.49435 106.70017 32865 ft 502 kts 150°
2026-05-01 11:52 -3.55571 106.73363 32862 ft 502 kts 150°
2026-05-01 11:53 -3.61701 106.76706 32863 ft 502 kts 150°
2026-05-01 11:53 -3.67827 106.80048 32857 ft 501 kts 150°
2026-05-01 11:54 -3.73905 106.83365 32857 ft 501 kts 150°
2026-05-01 11:54 -3.80018 106.86699 32855 ft 500 kts 150°
2026-05-01 11:55 -3.86130 106.90032 32853 ft 500 kts 150°
2026-05-01 11:55 -3.92239 106.93365 32855 ft 500 kts 150°
2026-05-01 11:56 -3.98350 106.96701 32854 ft 500 kts 150°
2026-05-01 11:56 -4.04461 107.00038 32853 ft 501 kts 150°
2026-05-01 11:57 -4.10578 107.03379 32854 ft 501 kts 150°
2026-05-01 11:57 -4.16704 107.06724 32857 ft 502 kts 150°
2026-05-01 11:58 -4.22830 107.10071 32855 ft 502 kts 150°
2026-05-01 11:59 -4.32035 107.15100 32854 ft 502 kts 150°
2026-05-01 11:59 -4.38173 107.18454 32853 ft 502 kts 150°
2026-05-01 12:00 -4.47384 107.23493 32859 ft 503 kts 150°
2026-05-01 12:01 -4.56568 107.28514 32858 ft 504 kts 150°
2026-05-01 12:01 -4.62725 107.31880 32857 ft 504 kts 150°
2026-05-01 12:02 -4.68885 107.35249 32854 ft 504 kts 150°
2026-05-01 12:02 -4.75047 107.38620 32861 ft 504 kts 150°
2026-05-01 12:03 -4.81212 107.41994 32851 ft 505 kts 150°
2026-05-01 12:03 -4.87380 107.45371 32865 ft 505 kts 150°
2026-05-01 12:04 -4.93553 107.48751 32856 ft 506 kts 150°
2026-05-01 12:04 -4.99736 107.52136 32857 ft 506 kts 150°
2026-05-01 12:05 -5.05920 107.55523 32860 ft 507 kts 150°
2026-05-01 12:05 -5.15199 107.60609 32860 ft 506 kts 150°
2026-05-01 12:06 -5.21375 107.63992 32856 ft 506 kts 150°
2026-05-01 12:06 -5.27549 107.67376 32861 ft 506 kts 150°
2026-05-01 12:07 -5.33723 107.70761 32858 ft 505 kts 150°
2026-05-01 12:07 -5.39890 107.74143 32860 ft 505 kts 150°
2026-05-01 12:08 -5.46015 107.77504 32857 ft 505 kts 150°
2026-05-01 12:08 -5.52175 107.80884 32857 ft 505 kts 150°
2026-05-01 12:09 -5.58332 107.84266 32859 ft 504 kts 150°
2026-05-01 12:09 -5.64486 107.87643 32861 ft 504 kts 150°
2026-05-01 12:10 -5.73713 107.92707 32865 ft 504 kts 150°
2026-05-01 12:11 -5.82939 107.97775 32871 ft 504 kts 150°
2026-05-01 12:11 -5.89085 108.01152 32871 ft 503 kts 150°
2026-05-01 12:12 -5.95230 108.04529 32853 ft 503 kts 150°
2026-05-01 12:12 -6.01371 108.07906 32856 ft 503 kts 150°
2026-05-01 12:13 -6.07508 108.11281 32869 ft 503 kts 150°
2026-05-01 12:13 -6.13649 108.14658 32870 ft 503 kts 149°
2026-05-01 12:14 -6.19786 108.18035 32855 ft 503 kts 150°
2026-05-01 12:14 -6.25930 108.21416 32857 ft 504 kts 150°
2026-05-01 12:15 -6.32080 108.24801 32874 ft 504 kts 150°
2026-05-01 12:15 -6.38192 108.28167 32880 ft 504 kts 150°
2026-05-01 12:16 -6.44347 108.31557 32866 ft 505 kts 150°
2026-05-01 12:16 -6.50503 108.34949 32868 ft 505 kts 150°
2026-05-01 12:17 -6.56663 108.38344 32880 ft 505 kts 150°
2026-05-01 12:17 -6.62822 108.41739 32883 ft 505 kts 150°
2026-05-01 12:18 -6.68976 108.45132 32894 ft 505 kts 150°
2026-05-01 12:18 -6.74094 108.47955 32898 ft 505 kts 150°
2026-05-01 12:19 -6.80256 108.51355 32912 ft 505 kts 150°
2026-05-01 12:19 -6.86428 108.54761 32914 ft 506 kts 150°
2026-05-01 12:20 -6.92598 108.58167 32914 ft 506 kts 150°
2026-05-01 12:20 -6.98772 108.61576 32918 ft 506 kts 150°
2026-05-01 12:21 -7.04939 108.64983 32903 ft 506 kts 150°
2026-05-01 12:21 -7.11114 108.68395 32915 ft 506 kts 150°
2026-05-01 12:22 -7.17281 108.71804 32915 ft 506 kts 150°
2026-05-01 12:22 -7.23448 108.75213 32909 ft 506 kts 150°
2026-05-01 12:23 -7.29623 108.78629 32910 ft 506 kts 150°
2026-05-01 12:23 -7.35805 108.82051 32927 ft 508 kts 150°
2026-05-01 12:24 -7.42015 108.85487 32917 ft 510 kts 150°
2026-05-01 12:24 -7.48241 108.88932 32914 ft 511 kts 150°
2026-05-01 12:25 -7.57543 108.94083 32920 ft 511 kts 150°
2026-05-01 12:26 -7.63765 108.97530 32904 ft 509 kts 150°
2026-05-01 12:26 -7.73062 109.02683 32904 ft 507 kts 150°
2026-05-01 12:27 -7.82324 109.07820 32902 ft 506 kts 150°
2026-05-01 12:28 -7.91570 109.12950 32898 ft 506 kts 150°
2026-05-01 12:29 -8.00852 109.18106 32898 ft 510 kts 150°
2026-05-01 12:29 -8.10213 109.23305 32913 ft 514 kts 150°
2026-05-01 12:30 -8.19613 109.28525 32903 ft 514 kts 150°
2026-05-01 12:31 -8.25837 109.31986 32902 ft 514 kts 150°
2026-05-01 12:31 -8.32089 109.35463 32904 ft 513 kts 150°
2026-05-01 12:32 -8.38325 109.38933 32899 ft 511 kts 150°
2026-05-01 12:32 -8.47669 109.44134 32913 ft 511 kts 150°
2026-05-01 12:33 -8.53892 109.47599 32911 ft 511 kts 150°
2026-05-01 12:33 -8.60119 109.51070 32911 ft 511 kts 150°
2026-05-01 12:34 -8.66345 109.54540 32901 ft 511 kts 150°
2026-05-01 12:34 -8.72561 109.58004 32909 ft 510 kts 150°
2026-05-01 12:35 -8.78767 109.61465 32908 ft 509 kts 150°
2026-05-01 12:35 -8.84958 109.64920 32910 ft 508 kts 150°
2026-05-01 12:36 -8.91153 109.68378 32915 ft 508 kts 150°
2026-05-01 12:36 -8.97347 109.71837 32915 ft 508 kts 150°
2026-05-01 12:37 -9.03539 109.75299 32911 ft 509 kts 150°
2026-05-01 12:37 -9.09746 109.78767 32917 ft 510 kts 150°
2026-05-01 12:38 -9.15962 109.82240 32917 ft 510 kts 150°
2026-05-01 12:38 -9.22179 109.85716 32908 ft 511 kts 150°
2026-05-01 12:39 -9.28403 109.89199 32908 ft 512 kts 150°
2026-05-01 12:39 -9.34631 109.92685 32915 ft 512 kts 150°
2026-05-01 12:40 -9.40816 109.96148 32908 ft 512 kts 150°
2026-05-01 12:40 -9.47043 109.99636 32914 ft 511 kts 150°
2026-05-01 12:41 -9.53268 110.03126 32920 ft 511 kts 150°
2026-05-01 12:41 -9.59489 110.06613 32916 ft 511 kts 150°
2026-05-01 12:42 -9.65715 110.10108 32907 ft 513 kts 150°
2026-05-01 12:42 -9.71968 110.13618 32926 ft 515 kts 150°
2026-05-01 12:43 -9.78232 110.17137 32930 ft 515 kts 150°
2026-05-01 12:43 -9.84499 110.20652 32924 ft 514 kts 150°
2026-05-01 12:44 -9.90756 110.24168 32928 ft 514 kts 150°
2026-05-01 12:45 -10.03237 110.31187 32922 ft 512 kts 150°
2026-05-01 12:45 -10.09476 110.34695 32933 ft 513 kts 150°
2026-05-01 12:46 -10.15719 110.38208 32936 ft 513 kts 150°
2026-05-01 12:46 -10.21964 110.41724 32930 ft 513 kts 150°
2026-05-01 12:47 -10.28215 110.45248 32937 ft 514 kts 150°
2026-05-01 12:47 -10.34470 110.48778 32934 ft 514 kts 150°
2026-05-01 12:48 -10.40724 110.52303 32933 ft 514 kts 150°
2026-05-01 12:48 -10.46987 110.55833 32936 ft 515 kts 150°
2026-05-01 12:49 -10.53243 110.59364 32934 ft 514 kts 150°
2026-05-01 12:49 -10.59489 110.62893 32927 ft 513 kts 150°
2026-05-01 12:50 -10.65737 110.66425 32932 ft 514 kts 151°
2026-05-01 12:50 -10.71988 110.69956 32937 ft 514 kts 151°
2026-05-01 12:51 -10.78243 110.73495 32934 ft 515 kts 151°
2026-05-01 12:52 -10.87641 110.78809 32938 ft 516 kts 151°
2026-05-01 12:52 -10.97042 110.84132 32934 ft 516 kts 152°
2026-05-01 12:53 -11.06453 110.89469 32942 ft 516 kts 151°
2026-05-01 12:54 -11.12727 110.93026 32934 ft 516 kts 151°
2026-05-01 12:54 -11.22098 110.98341 32934 ft 516 kts 151°
2026-05-01 12:55 -11.31494 111.03679 32935 ft 515 kts 152°
2026-05-01 12:56 -11.37759 111.07238 32943 ft 516 kts 152°
2026-05-01 12:56 -11.44033 111.10802 32944 ft 516 kts 152°
2026-05-01 12:57 -11.50310 111.14369 32938 ft 517 kts 152°
2026-05-01 12:57 -11.59738 111.19735 32953 ft 517 kts 152°
2026-05-01 12:58 -11.66021 111.23313 32941 ft 517 kts 152°
2026-05-01 12:59 -11.75450 111.28687 32952 ft 517 kts 151°
2026-05-01 12:59 -11.84870 111.34060 32942 ft 517 kts 152°
2026-05-01 13:00 -11.94292 111.39438 32962 ft 517 kts 152°
2026-05-01 13:01 -12.03404 111.45315 32953 ft 517 kts 142°
2026-05-01 13:02 -12.11797 111.52262 32950 ft 518 kts 141°
2026-05-01 13:07 -12.73515 112.02820 32964 ft 517 kts 142°
2026-05-01 13:08 -12.79128 112.07428 32963 ft 517 kts 142°
2026-05-01 13:08 -12.84705 112.12010 32966 ft 517 kts 142°
2026-05-01 13:09 -12.90317 112.16624 32955 ft 517 kts 143°
2026-05-01 13:09 -12.95927 112.21239 32971 ft 517 kts 143°
2026-05-01 13:10 -13.00632 112.25111 32971 ft 518 kts 143°
2026-05-01 13:10 -13.06246 112.29734 32971 ft 518 kts 143°
2026-05-01 13:11 -13.11865 112.34365 32974 ft 518 kts 143°
2026-05-01 13:11 -13.17485 112.38998 32971 ft 518 kts 143°
2026-05-01 13:12 -13.23104 112.43634 32968 ft 518 kts 143°
2026-05-01 13:12 -13.28721 112.48271 32983 ft 518 kts 143°
2026-05-01 13:13 -13.34333 112.52907 32981 ft 517 kts 143°
2026-05-01 13:13 -13.39936 112.57538 32967 ft 517 kts 143°
2026-05-01 13:14 -13.45537 112.62171 32969 ft 517 kts 143°
2026-05-01 13:14 -13.51133 112.66802 32981 ft 517 kts 143°
2026-05-01 13:15 -13.56730 112.71436 32988 ft 516 kts 143°
2026-05-01 13:15 -13.62284 112.76038 32988 ft 517 kts 143°
2026-05-01 13:16 -13.67880 112.80678 32987 ft 517 kts 143°
2026-05-01 13:16 -13.73475 112.85320 32973 ft 517 kts 143°
2026-05-01 13:17 -13.84658 112.94607 32980 ft 516 kts 143°
2026-05-01 13:18 -13.93040 113.01575 32977 ft 516 kts 143°
2026-05-01 13:18 -13.98627 113.06223 32977 ft 516 kts 143°
2026-05-01 13:19 -14.04211 113.10872 32983 ft 516 kts 143°
2026-05-01 13:20 -14.12584 113.17849 32992 ft 516 kts 143°
2026-05-01 13:20 -14.18168 113.22506 32983 ft 516 kts 143°
2026-05-01 13:21 -14.26541 113.29493 32983 ft 516 kts 143°
2026-05-01 13:21 -14.32126 113.34158 32988 ft 517 kts 143°
2026-05-01 13:22 -14.37710 113.38825 32983 ft 517 kts 143°
2026-05-01 13:22 -14.43293 113.43495 32988 ft 517 kts 143°
2026-05-01 13:23 -14.48881 113.48171 32989 ft 517 kts 143°
2026-05-01 13:23 -14.54436 113.52823 32989 ft 518 kts 143°
2026-05-01 13:24 -14.60027 113.57509 32991 ft 518 kts 143°
2026-05-01 13:25 -14.68418 113.64547 32990 ft 518 kts 143°
2026-05-01 13:25 -14.74008 113.69240 32997 ft 518 kts 143°
2026-05-01 13:26 -14.79609 113.73945 32993 ft 519 kts 143°
2026-05-01 13:26 -14.85209 113.78652 32992 ft 519 kts 143°
2026-05-01 13:27 -14.90807 113.83362 32995 ft 519 kts 143°
2026-05-01 13:27 -14.99192 113.90422 32991 ft 518 kts 143°
2026-05-01 13:28 -15.07568 113.97482 32996 ft 518 kts 143°
2026-05-01 13:29 -15.18751 114.06918 32993 ft 519 kts 143°
2026-05-01 13:31 -15.35518 114.21092 33000 ft 519 kts 143°
2026-05-01 13:32 -15.49479 114.32916 32997 ft 520 kts 143°
2026-05-01 13:33 -15.63491 114.44807 33008 ft 521 kts 143°
2026-05-01 13:34 -15.74696 114.54330 33004 ft 520 kts 143°
2026-05-01 13:35 -15.83096 114.61479 33006 ft 521 kts 143°
2026-05-01 13:36 -15.91496 114.68636 33012 ft 521 kts 143°
2026-05-01 13:36 -15.99904 114.75807 33007 ft 522 kts 143°
2026-05-01 13:37 -16.05521 114.80603 33003 ft 523 kts 143°
2026-05-01 13:37 -16.11142 114.85405 33006 ft 523 kts 143°
2026-05-01 13:38 -16.19535 114.92583 33019 ft 523 kts 144°
2026-05-01 13:39 -16.25165 114.97403 33005 ft 524 kts 144°
2026-05-01 13:39 -16.30798 115.02229 33011 ft 525 kts 143°
2026-05-01 13:40 -16.36432 115.07060 33010 ft 525 kts 143°
2026-05-01 13:40 -16.42063 115.11892 33007 ft 524 kts 143°
2026-05-01 13:41 -16.47689 115.16724 33005 ft 524 kts 143°
2026-05-01 13:41 -16.53307 115.21555 33009 ft 523 kts 143°
2026-05-01 13:42 -16.58921 115.26388 33008 ft 523 kts 143°
2026-05-01 13:42 -16.64532 115.31223 33007 ft 523 kts 143°
2026-05-01 13:43 -16.70140 115.36059 33014 ft 523 kts 143°
2026-05-01 13:43 -16.75740 115.40892 33019 ft 522 kts 143°
2026-05-01 13:44 -16.81342 115.45731 33006 ft 523 kts 144°
2026-05-01 13:44 -16.86945 115.50573 33010 ft 523 kts 144°
2026-05-01 13:45 -16.92552 115.55423 33008 ft 524 kts 144°
2026-05-01 13:45 -16.98165 115.60283 33009 ft 524 kts 143°
2026-05-01 13:46 -17.03778 115.65146 33004 ft 524 kts 143°
2026-05-01 13:46 -17.09394 115.70017 33005 ft 525 kts 144°
2026-05-01 13:47 -17.14975 115.74860 33012 ft 525 kts 144°
2026-05-01 13:47 -17.20593 115.79739 33009 ft 525 kts 144°
2026-05-01 13:48 -17.26207 115.84619 33006 ft 525 kts 144°
2026-05-01 13:48 -17.31823 115.89505 33009 ft 525 kts 144°
2026-05-01 13:49 -17.37444 115.94399 33009 ft 526 kts 144°
2026-05-01 13:49 -17.43069 115.99300 33010 ft 526 kts 144°
2026-05-01 13:50 -17.48700 116.04212 33009 ft 527 kts 144°
2026-05-01 13:50 -17.54328 116.09124 33008 ft 527 kts 144°
2026-05-01 13:51 -17.59952 116.14038 33017 ft 527 kts 144°
2026-05-01 13:51 -17.65584 116.18962 33011 ft 527 kts 144°
2026-05-01 13:52 -17.71218 116.23892 33009 ft 528 kts 144°
2026-05-01 13:52 -17.76857 116.28831 33012 ft 528 kts 144°
2026-05-01 13:53 -17.82495 116.33774 33006 ft 528 kts 144°
2026-05-01 13:53 -17.90941 116.41186 33019 ft 528 kts 144°
2026-05-01 13:54 -17.96571 116.46132 33009 ft 528 kts 144°
2026-05-01 13:54 -18.02208 116.51088 33005 ft 528 kts 144°
2026-05-01 13:55 -18.07843 116.56048 33005 ft 529 kts 144°
2026-05-01 13:55 -18.13476 116.61009 33010 ft 528 kts 144°
2026-05-01 13:56 -18.19106 116.65970 33004 ft 528 kts 144°
2026-05-01 13:56 -18.24699 116.70901 33008 ft 528 kts 144°
2026-05-01 13:57 -18.29418 116.75068 33002 ft 529 kts 144°
2026-05-01 13:57 -18.35968 116.80856 33003 ft 529 kts 144°
2026-05-01 13:58 -18.41604 116.85842 33000 ft 529 kts 144°
2026-05-01 13:58 -18.47242 116.90834 32999 ft 530 kts 144°
2026-05-01 13:59 -18.51930 116.94987 33002 ft 530 kts 144°
2026-05-01 13:59 -18.57568 116.99987 33004 ft 530 kts 144°
2026-05-01 14:00 -18.63212 117.04997 32999 ft 530 kts 144°
2026-05-01 14:00 -18.68845 117.10001 33000 ft 530 kts 144°
2026-05-01 14:01 -18.74498 117.15029 33006 ft 531 kts 144°
2026-05-01 14:01 -18.80153 117.20061 33005 ft 532 kts 144°
2026-05-01 14:02 -18.85804 117.25095 32997 ft 532 kts 144°
2026-05-01 14:02 -18.91453 117.30133 32996 ft 531 kts 144°
2026-05-01 14:03 -18.97096 117.35169 33005 ft 531 kts 144°
2026-05-01 14:03 -19.02740 117.40211 32998 ft 532 kts 144°
2026-05-01 14:04 -19.08387 117.45259 32991 ft 532 kts 144°
2026-05-01 14:04 -19.14037 117.50315 32990 ft 532 kts 144°
2026-05-01 14:05 -19.19678 117.55369 32990 ft 531 kts 144°
2026-05-01 14:05 -19.25316 117.60424 32985 ft 531 kts 144°
2026-05-01 14:06 -19.30945 117.65476 32989 ft 530 kts 144°
2026-05-01 14:06 -19.36570 117.70529 32989 ft 530 kts 144°
2026-05-01 14:07 -19.42194 117.75585 32985 ft 530 kts 144°
2026-05-01 14:08 -19.50589 117.83143 32992 ft 531 kts 145°
2026-05-01 14:08 -19.56217 117.88214 32988 ft 532 kts 145°
2026-05-01 14:09 -19.61853 117.93298 32981 ft 532 kts 144°
2026-05-01 14:09 -19.67495 117.98392 32975 ft 533 kts 144°
2026-05-01 14:10 -19.73136 118.03492 32982 ft 533 kts 144°
2026-05-01 14:10 -19.78781 118.08598 32987 ft 533 kts 145°
2026-05-01 14:11 -19.84425 118.13709 32977 ft 533 kts 145°
2026-05-01 14:11 -19.90083 118.18837 33190 ft 535 kts 145°
2026-05-01 14:11 -19.92906 118.21399 33583 ft 533 kts 145°
2026-05-01 14:12 -19.95717 118.23953 34004 ft 530 kts 145°
2026-05-01 14:12 -19.98516 118.26497 34280 ft 530 kts 145°
2026-05-01 14:12 -20.01320 118.29043 34519 ft 530 kts 146°
2026-05-01 14:12 -20.04125 118.31591 34734 ft 531 kts 146°
2026-05-01 14:13 -20.06938 118.34147 34880 ft 533 kts 146°
2026-05-01 14:13 -20.08807 118.35846 34909 ft 535 kts 146°
2026-05-01 14:13 -20.15384 118.41837 34964 ft 529 kts 146°
2026-05-01 14:14 -20.20950 118.46913 34963 ft 525 kts 146°
2026-05-01 14:14 -20.26496 118.51971 34984 ft 524 kts 146°
2026-05-01 14:15 -20.32003 118.56998 34973 ft 525 kts 146°
2026-05-01 14:15 -20.37392 118.62319 34963 ft 534 kts 138°
2026-05-01 14:16 -20.41957 118.68643 34972 ft 543 kts 128°
2026-05-01 14:16 -20.46105 118.75381 34972 ft 544 kts 128°
2026-05-01 14:17 -20.50263 118.82143 34987 ft 545 kts 128°
2026-05-01 14:17 -20.54458 118.88883 34969 ft 545 kts 129°
2026-05-01 14:18 -20.58658 118.95594 34966 ft 545 kts 129°
2026-05-01 14:18 -20.62158 119.01190 34967 ft 545 kts 128°
2026-05-01 14:19 -20.67066 119.09054 34970 ft 544 kts 128°
2026-05-01 14:19 -20.71255 119.15779 34971 ft 543 kts 128°
2026-05-01 14:20 -20.77525 119.25858 34973 ft 543 kts 128°
2026-05-01 14:21 -20.81696 119.32575 34973 ft 542 kts 128°
2026-05-01 14:21 -20.85862 119.39289 34972 ft 542 kts 128°
2026-05-01 14:22 -20.92103 119.49362 34975 ft 542 kts 128°
2026-05-01 14:22 -20.96262 119.56086 34987 ft 542 kts 128°
2026-05-01 14:23 -21.00417 119.62812 34981 ft 542 kts 128°
2026-05-01 14:23 -21.04572 119.69544 34976 ft 542 kts 128°
2026-05-01 14:24 -21.08721 119.76276 34969 ft 541 kts 128°
2026-05-01 14:24 -21.12836 119.82961 34975 ft 541 kts 128°
2026-05-01 14:25 -21.17006 119.89743 34988 ft 541 kts 128°
2026-05-01 14:25 -21.21119 119.96439 34970 ft 541 kts 128°
2026-05-01 14:26 -21.27320 120.06551 34975 ft 541 kts 128°
2026-05-01 14:27 -21.31451 120.13298 34982 ft 541 kts 128°
2026-05-01 14:27 -21.35578 120.20046 34982 ft 541 kts 128°
2026-05-01 14:28 -21.41768 120.30183 34994 ft 542 kts 128°
2026-05-01 14:28 -21.45901 120.36962 34989 ft 543 kts 128°
2026-05-01 14:29 -21.50036 120.43752 34978 ft 544 kts 128°
2026-05-01 14:30 -21.58301 120.57351 34983 ft 544 kts 128°
2026-05-01 14:31 -21.64494 120.67563 34979 ft 543 kts 127°
2026-05-01 14:31 -21.68588 120.74324 34979 ft 543 kts 127°
2026-05-01 14:32 -21.72704 120.81130 34977 ft 543 kts 127°
2026-05-01 14:32 -21.76818 120.87940 34976 ft 543 kts 127°
2026-05-01 14:33 -21.80931 120.94757 34999 ft 543 kts 127°
2026-05-01 14:33 -21.85048 121.01589 34983 ft 544 kts 127°
2026-05-01 14:34 -21.89166 121.08432 34963 ft 545 kts 127°
2026-05-01 14:34 -21.93287 121.15289 34981 ft 546 kts 127°
2026-05-01 14:35 -21.97411 121.22159 34980 ft 546 kts 127°
2026-05-01 14:35 -22.01533 121.29036 34978 ft 546 kts 127°
2026-05-01 14:36 -22.05657 121.35924 34972 ft 547 kts 127°
2026-05-01 14:36 -22.09783 121.42824 34982 ft 548 kts 127°
2026-05-01 14:37 -22.13909 121.49734 34970 ft 548 kts 127°
2026-05-01 14:37 -22.18037 121.56656 34982 ft 548 kts 127°
2026-05-01 14:38 -22.22130 121.63529 34983 ft 548 kts 127°
2026-05-01 14:38 -22.26258 121.70469 34986 ft 549 kts 127°
2026-05-01 14:39 -22.30386 121.77418 34991 ft 550 kts 127°
2026-05-01 14:39 -22.34515 121.84378 34990 ft 551 kts 127°
2026-05-01 14:40 -22.38645 121.91350 34986 ft 551 kts 127°
2026-05-01 14:40 -22.42770 121.98332 34986 ft 551 kts 127°
2026-05-01 14:41 -22.46895 122.05323 34996 ft 552 kts 127°
2026-05-01 14:41 -22.51020 122.12324 34990 ft 552 kts 127°
2026-05-01 14:42 -22.55144 122.19333 34998 ft 552 kts 127°
2026-05-01 14:42 -22.59263 122.26344 34987 ft 552 kts 127°
2026-05-01 14:43 -22.63382 122.33361 35019 ft 552 kts 127°
2026-05-01 14:43 -22.67500 122.40387 34998 ft 553 kts 127°
2026-05-01 14:44 -22.71589 122.47373 34996 ft 553 kts 127°
2026-05-01 14:44 -22.77765 122.57942 34977 ft 554 kts 127°
2026-05-01 14:45 -22.83938 122.68528 35004 ft 554 kts 127°
2026-05-01 14:46 -22.88054 122.75598 34997 ft 554 kts 127°
2026-05-01 14:46 -22.94220 122.86210 34990 ft 555 kts 127°
2026-05-01 14:47 -22.98331 122.93295 34991 ft 554 kts 127°
2026-05-01 14:48 -23.04485 123.03921 35006 ft 555 kts 127°
2026-05-01 14:48 -23.10642 123.14574 34995 ft 555 kts 127°
2026-05-01 14:49 -23.18836 123.28786 34994 ft 554 kts 127°
2026-05-01 14:50 -23.26331 123.41819 35002 ft 556 kts 127°
2026-05-01 14:51 -23.32474 123.52529 34996 ft 557 kts 126°
2026-05-01 14:52 -23.38627 123.63277 34998 ft 558 kts 126°
2026-05-01 14:53 -23.44779 123.74047 34999 ft 559 kts 126°
2026-05-01 14:53 -23.48886 123.81252 35005 ft 560 kts 126°
2026-05-01 14:54 -23.52994 123.88466 35000 ft 561 kts 126°
2026-05-01 14:54 -23.57103 123.95689 35000 ft 561 kts 126°
2026-05-01 14:55 -23.61212 124.02924 35004 ft 561 kts 126°
2026-05-01 14:55 -23.65315 124.10160 35000 ft 561 kts 126°
2026-05-01 14:56 -23.69410 124.17394 35002 ft 560 kts 126°
2026-05-01 14:56 -23.73496 124.24625 34996 ft 559 kts 126°
2026-05-01 14:57 -23.77548 124.31803 35037 ft 558 kts 126°
2026-05-01 14:57 -23.83664 124.42654 35005 ft 560 kts 126°
2026-05-01 14:58 -23.87740 124.49902 35002 ft 560 kts 126°
2026-05-01 14:58 -23.91816 124.57160 35001 ft 560 kts 126°
2026-05-01 14:59 -23.95885 124.64417 35019 ft 560 kts 126°
2026-05-01 14:59 -23.99965 124.71701 35004 ft 562 kts 126°
2026-05-01 15:00 -24.06084 124.82650 35005 ft 563 kts 126°
2026-05-01 15:01 -24.10166 124.89966 35002 ft 564 kts 126°
2026-05-01 15:01 -24.14249 124.97298 35028 ft 564 kts 126°
2026-05-01 15:02 -24.18397 125.04563 35007 ft 563 kts 126°
2026-05-01 15:02 -24.22434 125.11938 35006 ft 566 kts 126°
2026-05-01 15:03 -24.26488 125.19337 35003 ft 567 kts 126°
2026-05-01 15:03 -24.30574 125.26734 35002 ft 568 kts 126°
2026-05-01 15:04 -24.34647 125.34089 34993 ft 569 kts 126°
2026-05-01 15:04 -24.38754 125.41519 34991 ft 570 kts 126°
2026-05-01 15:05 -24.42854 125.48955 35004 ft 570 kts 126°
2026-05-01 15:05 -24.46952 125.56403 34994 ft 570 kts 126°
2026-05-01 15:06 -24.51041 125.63847 35016 ft 570 kts 126°
2026-05-01 15:06 -24.55133 125.71304 35013 ft 570 kts 126°
2026-05-01 15:07 -24.59224 125.78773 34996 ft 570 kts 126°
2026-05-01 15:07 -24.63306 125.86237 34999 ft 570 kts 126°
2026-05-01 15:08 -24.67384 125.93704 35031 ft 570 kts 126°
2026-05-01 15:08 -24.71466 126.01189 35011 ft 571 kts 126°
2026-05-01 15:09 -24.75546 126.08683 34999 ft 571 kts 126°
2026-05-01 15:09 -24.79619 126.16178 35004 ft 571 kts 126°
2026-05-01 15:10 -24.83690 126.23681 35034 ft 571 kts 126°
2026-05-01 15:10 -24.89796 126.34953 34999 ft 572 kts 126°
2026-05-01 15:11 -24.95868 126.46192 35018 ft 571 kts 126°
2026-05-01 15:12 -24.99929 126.53723 35042 ft 571 kts 126°
2026-05-01 15:12 -25.06018 126.65036 35013 ft 572 kts 125°
2026-05-01 15:14 -25.16164 126.83949 35038 ft 573 kts 125°
2026-05-01 15:14 -25.22261 126.95350 35015 ft 575 kts 125°
2026-05-01 15:15 -25.30397 127.10609 35010 ft 577 kts 125°
2026-05-01 15:16 -25.38531 127.25916 34994 ft 578 kts 125°
2026-05-01 15:18 -25.48652 127.45030 35047 ft 578 kts 125°
2026-05-01 15:19 -25.56787 127.60452 35010 ft 578 kts 125°
2026-05-01 15:19 -25.62831 127.71944 34994 ft 578 kts 124°
2026-05-01 15:20 -25.68897 127.83504 35012 ft 579 kts 125°
2026-05-01 15:21 -25.72938 127.91222 35008 ft 579 kts 124°
2026-05-01 15:21 -25.76980 127.98956 34998 ft 579 kts 124°
2026-05-01 15:22 -25.83036 128.10568 35011 ft 580 kts 124°
2026-05-01 15:22 -25.87075 128.18327 35014 ft 581 kts 124°
2026-05-01 15:23 -25.91114 128.26101 35011 ft 581 kts 124°
2026-05-01 15:23 -25.95148 128.33880 35048 ft 581 kts 124°
2026-05-01 15:24 -25.99190 128.41683 35017 ft 583 kts 124°
2026-05-01 15:24 -26.03235 128.49512 35020 ft 584 kts 124°
2026-05-01 15:25 -26.07282 128.57353 35014 ft 585 kts 124°
2026-05-01 15:25 -26.11333 128.65218 35011 ft 587 kts 124°
2026-05-01 15:26 -26.15383 128.73097 35008 ft 587 kts 124°
2026-05-01 15:26 -26.19435 128.80991 35003 ft 587 kts 124°
2026-05-01 15:27 -26.23479 128.88886 35020 ft 587 kts 124°
2026-05-01 15:28 -26.29520 129.00703 35005 ft 588 kts 123°
2026-05-01 15:28 -26.33559 129.08623 35006 ft 588 kts 123°
2026-05-01 15:29 -26.39600 129.20503 35032 ft 587 kts 123°
2026-05-01 15:30 -26.47643 129.36368 34994 ft 587 kts 123°
2026-05-01 15:31 -26.59684 129.60227 35001 ft 589 kts 123°
2026-05-01 15:32 -26.67706 129.76195 35040 ft 590 kts 123°
2026-05-01 15:34 -26.79713 130.00203 35001 ft 591 kts 122°